{"data":{"norad_id":60406,"epoch":"2026-05-24T23:40:19.096896Z","epoch_age_seconds":73551,"freshness":"FRESH","line1":"1 60406U 24141J   26144.98633214  .00004146  00000+0  39055-4 0  9991","line2":"2 60406  53.1568  70.3275 0000955  65.9434 294.1684 15.69715588103722","mean_motion":15.69715588,"eccentricity":9.55e-5,"inclination_deg":53.1568,"raan_deg":70.3275,"arg_perigee_deg":65.9434,"mean_anomaly_deg":294.1684,"bstar":3.9055e-5,"rev_number":10372,"period_min":91.736363645004,"perigee_km":359.06729528913,"apogee_km":360.35422421125,"semimajor_km":6737.8477597502,"source":"CELESTRAK","updated_at":"2026-05-25T13:38:19.268842Z"}}